Location: Newark
(31.5350°N, 35.0986°E)
Time: 22:32:14
(UTC+00:00)

A-11 Canister half - Pass Details

Date: 25 October 2019
Orbit: 1514 x 1685 km, 47.2° (Epoch: 20 November)

Event Time Altitude Azimuth Distance (km) Brightness Sun altitude
Exits shadow 00:09:00 31° 16° (NNE) 2,559 10.2 -47.3°
Drops below altitude 10° 00:14:47 10° 49° (NE) 3,794 11.5 -46.1°
Sets 00:18:13 0° 58° (ENE) 4,754 12.3 -45.4°
